• In Uzbekistan
  • List of Countries
  • For 7 days
  • Water Temperature
  • Satellite Maps
  • Weather Map
  • Weather Widgets
  • user-avatar
    Login

    Hourly Weather Narwik

    Today, 23 February, Saturday

    Time Temperature Precipitation Wind Pressure Humidity
    00:00 +5°C° 2.5 mm 4 mps 750 mmHg 99%
    01:00 +5°C° 0 mm 5 mps 750 mmHg 99%
    02:00 +5°C° 2.9 mm 5 mps 750 mmHg 99%
    03:00 +4°C° 2.9 mm 6 mps 750 mmHg 99%
    04:00 +4°C° 2.9 mm 6 mps 750 mmHg 99%
    05:00 +4°C° 1.8 mm 6 mps 751 mmHg 99%
    06:00 +4°C° 1.8 mm 6 mps 752 mmHg 99%
    07:00 +2°C° 0 mm 8 mps 752 mmHg 99%
    08:00 +2°C° 0.7 mm 8 mps 753 mmHg 99%
    09:00 +3°C° 0.7 mm 7 mps 753 mmHg 99%
    10:00 +3°C° 0.7 mm 7 mps 754 mmHg 99%
    11:00 +3°C° 0.2 mm 6 mps 754 mmHg 99%
    12:00 +3°C° 0.2 mm 6 mps 754 mmHg 99%
    13:00 +3°C° 0.2 mm 5 mps 754 mmHg 99%
    14:00 +4°C° 0.2 mm 4 mps 754 mmHg 99%
    15:00 +4°C° 0.2 mm 4 mps 754 mmHg 99%
    16:00 +4°C° 0.2 mm 3 mps 753 mmHg 99%
    17:00 +4°C° 0.1 mm 3 mps 753 mmHg 99%
    18:00 +4°C° 0.1 mm 3 mps 753 mmHg 99%
    19:00 +4°C° 0.1 mm 3 mps 752 mmHg 99%
    20:00 +4°C° 0.3 mm 4 mps 752 mmHg 99%
    21:00 +4°C° 0.3 mm 4 mps 752 mmHg 99%
    22:00 +4°C° 0.3 mm 4 mps 752 mmHg 99%
    23:00 +4°C° 0.2 mm 4 mps 751 mmHg 99%

    Tomorrow, 24 February, Sunday

    Time Temperature Precipitation Wind Pressure Humidity
    00:00 +4°C° 0.2 mm 4 mps 751 mmHg 99%
    01:00 +4°C° 0.2 mm 4 mps 750 mmHg 99%
    02:00 +4°C° 0.8 mm 4 mps 749 mmHg 99%
    03:00 +4°C° 0.8 mm 4 mps 749 mmHg 99%
    04:00 +5°C° 0.8 mm 4 mps 748 mmHg 99%
    05:00 +4°C° 1 mm 4 mps 747 mmHg 99%
    06:00 +4°C° 1 mm 4 mps 746 mmHg 98%
    07:00 +3°C° 1 mm 5 mps 745 mmHg 98%
    08:00 +3°C° 1 mm 7 mps 745 mmHg 98%
    09:00 +2°C° 1 mm 9 mps 744 mmHg 97%
    10:00 +1°C° 1 mm 11 mps 744 mmHg 97%
    11:00 +1°C° 0.3 mm 10 mps 743 mmHg 95%
    12:00 0°C° 0.3 mm 9 mps 743 mmHg 92%
    13:00 0°C° 0.3 mm 8 mps 742 mmHg 90%
    14:00 0°C° 0.9 mm 10 mps 741 mmHg 91%
    15:00 -1°C° 0.9 mm 11 mps 740 mmHg 92%
    16:00 -2°C° 0.9 mm 13 mps 739 mmHg 93%
    17:00 -1°C° 2.2 mm 13 mps 739 mmHg 93%
    18:00 -1°C° 2.2 mm 14 mps 738 mmHg 93%
    19:00 -1°C° 2.2 mm 14 mps 738 mmHg 93%
    20:00 -1°C° 2.3 mm 12 mps 739 mmHg 95%
    21:00 +1°C° 2.3 mm 10 mps 740 mmHg 96%
    22:00 +1°C° 2.3 mm 8 mps 741 mmHg 97%
    23:00 +2°C° 1 mm 7 mps 743 mmHg 97%

    Day after tomorrow, 25 February, Monday

    Time Temperature Precipitation Wind Pressure Humidity
    00:00 +2°C° 1 mm 6 mps 745 mmHg 97%
    01:00 +2°C° 1 mm 5 mps 747 mmHg 96%
    02:00 +2°C° 1 mm 5 mps 748 mmHg 96%
    03:00 +1°C° 1 mm 6 mps 750 mmHg 96%
    04:00 +1°C° 1 mm 6 mps 751 mmHg 96%
    05:00 +1°C° 0.8 mm 5 mps 752 mmHg 95%
    06:00 0°C° 0.8 mm 5 mps 753 mmHg 95%
    07:00 0°C° 0.8 mm 4 mps 754 mmHg 95%
    08:00 0°C° 0.3 mm 4 mps 754 mmHg 94%
    09:00 0°C° 0.3 mm 4 mps 754 mmHg 94%
    10:00 0°C° 0.3 mm 4 mps 754 mmHg 94%
    11:00 0°C° 0.2 mm 4 mps 754 mmHg 93%
    12:00 +1°C° 0.2 mm 3 mps 754 mmHg 93%
    13:00 0°C° 0.2 mm 3 mps 754 mmHg 92%
    14:00 +1°C° 0.3 mm 2 mps 753 mmHg 92%
    15:00 +1°C° 0.3 mm 2 mps 752 mmHg 93%
    16:00 -1°C° 0.3 mm 2 mps 751 mmHg 93%
    17:00 -1°C° 0.4 mm 2 mps 750 mmHg 93%
    18:00 -1°C° 0.4 mm 2 mps 749 mmHg 92%
    19:00 -1°C° 0.4 mm 2 mps 749 mmHg 92%
    20:00 -1°C° 0.3 mm 2 mps 749 mmHg 91%
    21:00 +1°C° 0.3 mm 1 mps 748 mmHg 91%
    22:00 +1°C° 0.3 mm 1 mps 748 mmHg 91%
    23:00 +1°C° 0.2 mm 1 mps 749 mmHg 92%

    26 February, Tuesday

    Time Temperature Precipitation Wind Pressure Humidity
    00:00 +1°C° 0.2 mm 1 mps 749 mmHg 94%
    01:00 +1°C° 0.2 mm 1 mps 750 mmHg 95%
    02:00 +1°C° 0.2 mm 1 mps 750 mmHg 95%
    03:00 +1°C° 0.2 mm 1 mps 751 mmHg 95%
    04:00 +1°C° 0.2 mm 1 mps 752 mmHg 95%
    05:00 +2°C° 0.2 mm 1 mps 752 mmHg 95%
    06:00 +1°C° 0.2 mm 2 mps 753 mmHg 95%
    07:00 +1°C° 0.2 mm 2 mps 753 mmHg 95%
    08:00 +1°C° 0.1 mm 2 mps 753 mmHg 95%
    09:00 +1°C° 0.1 mm 2 mps 754 mmHg 94%
    10:00 +1°C° 0.1 mm 2 mps 754 mmHg 94%
    11:00 +1°C° 0.1 mm 2 mps 754 mmHg 93%
    12:00 +1°C° 0.1 mm 2 mps 753 mmHg 92%
    13:00 +1°C° 0.1 mm 2 mps 753 mmHg 91%
    14:00 +1°C° 0 mm 2 mps 752 mmHg 90%
    15:00 0°C° 0 mm 3 mps 751 mmHg 90%
    16:00 -1°C° 0 mm 3 mps 750 mmHg 89%
    17:00 0°C° 0.6 mm 3 mps 748 mmHg 90%
    18:00 -1°C° 0.6 mm 4 mps 747 mmHg 91%
    19:00 -1°C° 0.6 mm 4 mps 745 mmHg 93%
    20:00 -1°C° 0.9 mm 8 mps 745 mmHg 92%
    21:00 -2°C° 0.9 mm 12 mps 744 mmHg 90%
    22:00 -1°C° 0.9 mm 15 mps 743 mmHg 89%
    23:00 -1°C° 1 mm 13 mps 743 mmHg 92%

    27 February, Wednesday

    Time Temperature Precipitation Wind Pressure Humidity
    00:00 -1°C° 1 mm 11 mps 742 mmHg 94%
    01:00 0°C° 1 mm 9 mps 742 mmHg 96%
    02:00 0°C° 1 mm 9 mps 741 mmHg 95%
    03:00 0°C° 1 mm 9 mps 741 mmHg 95%
    04:00 0°C° 1 mm 9 mps 740 mmHg 94%
    05:00 0°C° 1 mm 8 mps 740 mmHg 94%
    06:00 0°C° 1 mm 7 mps 740 mmHg 95%
    07:00 +1°C° 1 mm 6 mps 739 mmHg 95%
    08:00 +1°C° 1.3 mm 6 mps 739 mmHg 95%
    09:00 +1°C° 1.3 mm 6 mps 738 mmHg 95%
    10:00 0°C° 1.3 mm 7 mps 737 mmHg 95%
    11:00 0°C° 1.4 mm 7 mps 737 mmHg 95%
    12:00 0°C° 1.4 mm 8 mps 736 mmHg 95%
    13:00 0°C° 1.4 mm 9 mps 735 mmHg 95%
    14:00 0°C° 0.7 mm 8 mps 734 mmHg 95%
    15:00 0°C° 0.7 mm 7 mps 733 mmHg 95%
    16:00 +1°C° 0.7 mm 6 mps 732 mmHg 94%
    17:00 0°C° 0.8 mm 4 mps 731 mmHg 95%
    18:00 +1°C° 0.8 mm 3 mps 730 mmHg 95%
    19:00 +3°C° 0.8 mm 1 mps 729 mmHg 96%
    20:00 +3°C° 0.3 mm 1 mps 729 mmHg 95%
    21:00 +2°C° 0.3 mm 1 mps 729 mmHg 95%
    22:00 +2°C° 0.3 mm 1 mps 729 mmHg 95%
    23:00 -1°C° 0.3 mm 3 mps 730 mmHg 95%

    28 February, Thursday

    Time Temperature Precipitation Wind Pressure Humidity
    00:00 -2°C° 0.3 mm 5 mps 732 mmHg 94%
    01:00 -4°C° 0.3 mm 6 mps 733 mmHg 94%
    02:00 -5°C° 0.2 mm 6 mps 734 mmHg 92%
    03:00 -6°C° 0.2 mm 6 mps 736 mmHg 90%
    04:00 -8°C° 0.2 mm 6 mps 738 mmHg 89%
    05:00 -9°C° 0.2 mm 6 mps 738 mmHg 89%
    06:00 -8°C° 0.2 mm 5 mps 739 mmHg 89%
    07:00 -10°C° 0.2 mm 5 mps 740 mmHg 90%
    08:00 -10°C° 0.2 mm 5 mps 741 mmHg 89%
    09:00 -10°C° 0.2 mm 5 mps 742 mmHg 89%
    10:00 -9°C° 0.2 mm 4 mps 742 mmHg 89%
    11:00 -9°C° 0.2 mm 4 mps 743 mmHg 89%
    12:00 -9°C° 0.2 mm 4 mps 743 mmHg 88%
    13:00 -8°C° 0.2 mm 3 mps 744 mmHg 88%
    14:00 -8°C° 0.2 mm 3 mps 744 mmHg 89%
    15:00 -8°C° 0.2 mm 3 mps 744 mmHg 89%
    16:00 -8°C° 0.2 mm 3 mps 745 mmHg 89%
    17:00 -8°C° 0.2 mm 3 mps 745 mmHg 90%
    18:00 -8°C° 0.2 mm 3 mps 745 mmHg 92%
    19:00 -7°C° 0.2 mm 2 mps 745 mmHg 94%
    20:00 -7°C° 0.3 mm 2 mps 745 mmHg 93%
    21:00 -7°C° 0.3 mm 3 mps 745 mmHg 92%
    22:00 -7°C° 0.3 mm 3 mps 745 mmHg 92%
    23:00 -7°C° 0.3 mm 3 mps 745 mmHg 91%
    Show more